Theta_e
354 355 356 357 357 359 360 361 361 362 362 363 364 363 362 362 361 359 358 359 360 360 360 359 359 359 359 360 359 358 356 356 355 358 359 361 361 360 359 360 360 360 360 359 359 357 355 355 355 353 353 355 355 353 353 354 355 355 354 355 355 354 354 356 360 360 356 354 353 351 352 354 353 351 351 351 351 351 349 349 349 349 349 348 347
353 354 355 356 357 359 360 360 361 361 362 363 365 364 363 362 361 360 359 360 361 360 359 359 358 358 358 359 359 358 357 357 356 358 360 361 362 361 359 359 360 361 361 361 361 359 358 355 355 355 355 354 356 355 353 354 356 356 357 357 356 353 353 354 356 358 358 355 353 351 352 354 353 352 352 350 349 349 347 348 348 347 347 347 346
353 354 355 356 357 358 359 360 360 361 360 361 363 364 363 361 359 358 359 360 361 360 358 358 358 358 358 358 359 359 359 358 358 357 359 360 361 361 360 360 361 361 361 362 362 360 360 358 356 356 355 355 357 357 355 355 357 356 356 356 355 353 353 353 355 358 359 355 352 351 352 353 352 351 350 349 348 347 347 346 345 345 345 344 345
353 354 355 356 356 357 357 358 359 359 360 361 360 361 361 361 358 357 357 357 358 358 357 357 355 355 356 357 358 357 357 358 358 358 359 360 361 361 361 361 360 360 359 361 362 363 362 360 358 357 357 358 358 358 357 357 357 356 355 355 356 354 354 354 355 357 356 354 352 351 351 352 353 350 348 346 346 345 343 343 343 344 342 341 343
353 354 355 356 356 355 355 356 357 358 360 360 359 358 358 360 361 360 358 357 359 359 358 357 355 353 355 356 357 357 356 357 358 359 359 359 360 362 363 362 360 359 359 360 361 363 362 361 359 359 361 362 359 359 359 357 358 358 357 358 357 355 354 354 354 354 353 353 352 351 352 352 351 349 347 345 344 343 343 342 342 342 340 340 343
352 353 353 354 354 356 355 355 356 357 358 358 356 356 357 358 359 360 359 358 359 360 359 357 355 355 355 356 358 357 357 357 359 360 359 357 360 363 363 362 361 360 358 358 360 361 361 360 359 359 360 363 362 360 359 358 359 360 360 359 358 355 353 352 353 353 353 352 351 350 351 352 350 347 346 343 342 344 344 342 341 342 341 339 341
352 352 351 352 353 354 354 354 355 356 357 357 353 353 357 359 359 360 359 358 359 361 360 357 356 356 355 356 357 357 357 358 359 360 359 359 360 362 362 361 362 361 358 356 357 359 360 360 363 362 362 364 364 361 359 360 361 361 361 360 357 355 352 350 352 353 352 351 350 350 349 349 349 348 345 344 343 344 344 342 341 342 341 340 341
353 351 349 348 349 352 353 353 354 355 358 358 354 354 357 360 360 360 359 357 358 360 359 357 356 357 357 357 357 358 359 359 358 358 359 360 362 362 361 361 361 360 358 357 356 357 358 360 363 365 364 363 364 362 359 360 361 360 359 359 356 355 354 352 351 351 351 349 348 348 348 347 348 347 345 344 344 343 342 342 341 341 341 341 341
352 353 352 350 350 351 352 352 352 354 356 356 356 357 358 360 360 359 359 359 358 359 358 356 356 357 356 357 357 357 357 357 359 360 361 361 363 363 360 359 360 358 358 359 357 356 358 359 361 364 365 363 363 361 358 358 359 358 358 357 355 354 354 353 351 350 350 350 348 348 349 349 348 346 344 345 345 343 342 341 342 342 340 341 342
351 353 354 353 352 351 352 351 351 352 353 353 354 356 356 356 356 354 357 360 359 358 356 355 356 355 356 356 356 356 355 356 360 363 362 363 364 365 362 360 359 357 358 360 359 358 358 359 360 361 362 363 361 360 358 357 357 357 358 356 354 353 353 353 351 348 349 351 350 349 350 350 348 345 344 343 343 342 341 341 341 341 340 342 344
350 351 352 352 352 352 352 352 351 351 351 352 353 354 353 353 352 350 353 358 359 358 356 355 355 354 355 356 356 356 355 356 361 364 363 363 363 364 363 361 360 359 359 359 358 358 359 359 358 357 358 361 360 357 357 357 358 359 358 356 354 353 353 352 351 349 349 351 351 349 349 350 347 344 343 343 341 340 341 341 341 340 341 342 344
350 351 351 351 351 352 352 353 352 351 352 353 354 353 351 350 350 351 353 356 358 358 356 355 355 354 354 354 355 356 355 357 361 363 362 360 360 362 362 360 359 358 359 359 358 358 360 359 359 358 359 359 358 356 358 357 357 357 356 355 353 353 353 352 352 350 349 350 350 348 347 347 345 344 343 342 340 340 340 340 340 340 340 341 342
349 351 351 352 353 353 352 352 350 350 352 353 353 353 352 350 350 351 354 356 358 357 354 355 356 355 355 355 355 356 356 357 360 362 361 358 358 361 362 360 359 358 359 359 359 359 360 359 360 361 360 359 358 358 357 356 356 355 354 353 352 352 352 351 350 350 349 349 349 347 346 346 345 343 342 341 339 340 340 339 340 340 340 341 339
349 349 351 352 353 352 349 348 348 350 352 352 352 352 352 352 352 352 354 356 357 357 354 354 356 356 356 356 355 356 357 359 361 361 360 358 357 360 361 360 359 359 359 359 359 359 359 357 358 360 360 358 359 357 356 355 354 353 351 349 347 347 346 346 346 347 348 348 347 345 344 344 343 341 341 340 340 340 339 339 339 339 338 339 338
348 348 348 349 350 349 347 345 344 345 348 350 351 352 353 354 353 353 353 354 356 357 355 354 356 356 357 357 356 357 357 359 360 360 360 358 357 360 361 360 359 359 358 359 359 358 358 357 358 358 358 357 358 357 355 353 352 350 348 345 344 345 344 343 344 345 346 346 345 344 344 343 343 341 340 340 340 339 339 337 337 336 335 335 336
348 348 346 347 349 349 346 344 342 341 342 345 347 350 352 354 353 353 352 350 353 355 354 355 356 356 357 357 357 357 357 357 358 360 360 359 358 359 360 360 359 359 358 358 358 358 357 356 356 357 358 357 357 355 353 352 350 348 346 343 342 342 341 341 342 343 344 343 342 342 342 341 340 339 338 338 337 335 334 334 334 334 332 332 335
348 348 347 347 347 347 345 344 343 341 340 341 342 346 350 352 352 353 352 351 352 354 355 356 356 355 355 358 358 358 358 358 359 359 359 360 360 359 358 359 359 358 357 356 355 355 355 354 354 354 355 356 355 353 352 350 348 346 343 341 339 338 336 336 338 338 339 339 337 337 337 335 334 334 333 332 329 326 329 332 332 332 331 333 335
347 348 347 345 344 345 346 345 345 343 342 342 342 344 347 351 352 353 353 351 351 353 353 354 354 354 354 356 357 356 358 359 359 360 359 359 360 357 357 358 359 356 354 352 352 352 353 353 353 353 354 354 353 352 350 349 347 344 341 338 336 334 332 332 333 333 334 334 332 330 329 327 325 323 322 322 324 327 329 330 329 330 330 331 331
347 347 346 345 344 345 344 344 344 344 344 345 345 345 346 349 351 352 352 352 351 351 352 353 353 354 354 354 354 355 356 358 358 359 358 358 359 357 355 356 356 352 350 349 350 352 352 352 352 353 354 354 352 350 350 347 345 343 340 337 335 332 330 330 331 330 329 329 327 325 325 322 319 318 316 317 321 326 327 326 326 327 328 327 326
347 347 347 346 345 344 345 345 345 344 344 345 347 347 345 346 350 351 351 353 352 352 353 353 352 353 353 353 353 353 354 355 356 357 357 358 358 356 353 354 352 349 348 349 349 350 349 349 350 351 352 352 351 350 348 345 343 341 338 337 335 332 330 330 331 330 328 328 327 326 326 325 323 322 321 319 319 320 320 321 322 324 325 325 324
347 348 348 346 344 345 346 345 344 344 343 343 346 348 344 344 349 351 351 352 353 353 353 353 352 351 352 352 352 353 354 355 356 356 356 357 357 356 354 352 350 349 348 348 348 348 347 348 348 349 350 350 349 348 345 343 341 339 337 336 333 331 330 330 330 330 329 328 327 326 325 324 323 323 322 321 321 319 318 318 318 320 322 323 323
346 347 348 346 345 346 345 344 344 344 342 342 344 346 344 343 347 351 351 351 352 352 352 351 350 350 351 351 351 353 354 355 355 356 356 357 356 355 354 351 350 350 348 346 346 347 346 346 346 347 348 347 345 345 342 340 338 337 335 334 332 330 330 331 331 329 327 325 324 324 323 323 321 321 320 320 320 319 318 317 317 316 316 317 319
345 348 349 347 346 346 345 344 344 343 343 342 341 343 344 344 346 350 350 350 351 352 351 351 350 350 349 349 350 351 352 353 354 355 356 357 355 354 354 351 349 350 348 346 345 345 345 345 345 343 344 344 343 341 340 338 338 336 334 332 331 331 331 330 328 326 324 324 324 323 323 322 321 321 320 319 318 317 316 316 316 316 314 314 315
348 350 349 347 346 345 345 345 344 343 343 342 340 341 343 345 346 348 350 349 350 351 351 351 351 349 348 348 349 349 349 352 354 354 355 357 355 352 352 351 349 350 349 345 344 343 343 343 342 341 342 342 341 340 339 338 337 335 333 331 331 330 328 327 325 324 324 324 323 323 323 321 321 321 318 316 316 317 318 317 317 317 316 316 316
349 348 346 345 345 344 345 345 344 344 343 341 341 342 344 345 346 348 349 348 348 350 350 350 349 349 348 347 348 349 350 351 352 353 353 353 351 350 351 351 348 348 346 342 340 340 341 340 340 340 341 340 338 337 335 333 332 331 330 329 328 326 325 325 324 324 323 323 323 322 321 320 319 318 317 317 318 319 320 319 319 319 318 318 318
347 347 345 345 345 344 344 344 344 345 344 342 341 342 344 347 347 348 349 347 348 349 349 349 348 347 347 346 347 348 349 349 351 351 349 347 346 349 350 348 345 344 342 338 336 336 337 338 338 337 337 336 335 332 330 328 327 327 326 326 325 324 324 324 323 323 323 322 321 319 319 318 317 316 318 320 320 318 318 319 320 320 319 319 318
345 346 345 344 344 344 344 344 343 345 345 344 342 342 345 346 347 348 348 347 348 348 347 348 348 347 348 348 347 348 348 347 348 348 344 342 343 346 346 343 341 340 336 333 334 334 334 334 333 332 331 330 329 327 324 323 323 324 324 323 324 323 324 323 322 322 321 320 318 318 317 317 316 317 319 320 319 317 318 319 319 318 319 318 318
345 345 344 344 345 344 344 344 344 344 345 344 342 341 343 343 344 347 348 347 348 346 346 347 347 346 347 349 349 348 348 346 345 345 343 341 341 341 339 338 338 336 333 331 332 331 329 328 326 324 323 321 320 320 320 321 322 323 323 323 323 323 323 322 321 320 319 318 318 317 317 317 319 319 320 320 318 318 319 318 318 318 319 318 318
345 344 343 343 344 344 344 345 345 345 345 344 340 339 340 341 343 345 345 346 347 346 345 346 347 346 348 348 348 350 348 345 345 345 343 342 340 337 336 335 334 332 331 331 329 325 321 320 318 318 317 317 317 319 320 321 322 322 322 322 322 322 322 320 319 318 318 317 317 317 318 320 320 320 320 320 319 319 319 319 318 318 318 319 318
343 343 343 343 343 344 345 345 345 345 344 343 341 339 339 340 342 342 341 342 345 345 345 346 346 347 348 348 348 349 347 345 345 344 342 340 339 335 332 331 329 327 327 327 325 320 317 316 315 316 317 318 320 321 321 321 322 321 321 321 320 320 320 319 318 318 317 316 317 319 320 320 319 318 320 320 319 319 319 319 318 318 319 319 319
343 343 343 342 343 344 345 345 345 345 344 344 343 341 340 340 339 340 340 342 343 344 345 345 345 346 346 346 346 347 346 345 344 341 338 337 336 332 329 326 325 323 324 323 320 316 315 316 317 318 319 320 321 321 320 320 320 319 319 319 319 319 319 319 318 318 318 318 319 319 320 320 319 318 319 319 318 318 318 319 318 318 319 319 318
343 343 343 343 344 345 345 345 345 345 344 345 344 343 343 340 338 338 340 342 342 343 344 344 345 345 346 346 346 346 345 344 342 338 336 335 332 330 328 326 324 322 321 320 318 317 318 320 320 320 320 320 320 320 320 319 318 317 318 319 319 319 318 318 318 318 319 319 319 318 319 319 319 318 317 317 318 317 318 318 318 318 317 318 317
343 342 343 343 344 344 344 345 345 344 345 345 344 343 343 341 338 337 338 340 342 342 343 343 344 345 346 346 346 344 343 342 339 335 333 331 329 327 326 324 323 321 321 321 321 323 323 323 322 321 320 320 320 320 319 318 317 318 319 319 319 319 318 318 318 319 318 318 318 318 318 318 318 317 318 317 318 317 317 317 316 316 317 317 316
342 342 343 344 344 344 344 344 344 344 344 344 343 342 341 341 339 337 338 340 339 337 339 342 343 343 344 344 343 342 340 338 335 332 329 328 327 325 323 322 322 323 324 325 326 327 327 326 324 322 320 320 320 320 319 318 318 319 319 319 319 317 317 317 317 317 317 318 318 317 317 317 317 318 317 317 318 317 317 316 315 315 315 314 314
342 342 343 344 343 343 344 343 343 343 343 344 343 341 340 341 341 339 340 340 335 330 331 334 336 337 340 340 339 338 336 334 331 329 327 325 323 322 323 323 324 326 327 328 328 328 328 327 325 322 321 320 320 320 319 319 319 320 320 319 317 317 318 319 319 318 318 318 318 317 316 317 318 318 318 318 317 316 315 314 314 314 313 313 312
341 341 342 343 343 343 344 343 342 342 342 343 343 342 341 342 341 340 340 338 332 327 324 324 325 329 332 334 335 335 333 332 331 329 325 324 322 323 324 325 327 328 329 329 329 329 328 326 324 322 321 320 320 320 320 320 320 320 319 317 317 318 318 319 319 320 319 319 318 317 317 318 319 318 317 317 316 314 314 313 313 312 312 311 310
339 340 341 342 341 342 343 343 342 341 342 343 343 343 342 341 341 341 338 336 331 327 324 321 321 322 322 323 326 329 329 329 328 326 323 323 324 325 327 328 329 329 329 330 329 328 326 324 322 322 321 320 320 321 321 321 320 319 318 317 318 319 320 319 318 319 319 319 318 318 318 318 318 317 316 315 314 313 313 313 311 311 311 310 310
337 338 340 342 341 342 343 342 341 341 343 343 343 342 342 341 341 340 337 334 331 329 327 324 322 319 317 316 319 323 322 321 321 321 322 324 326 328 329 329 330 330 330 330 327 325 323 322 321 321 321 321 321 321 320 320 320 319 319 320 320 320 320 318 317 317 318 318 318 318 318 317 317 316 315 313 313 313 313 311 310 310 310 311 311
335 337 339 340 341 341 342 342 342 342 343 343 342 343 342 341 340 338 336 335 332 330 328 326 322 318 317 316 317 319 318 317 318 321 323 327 329 330 330 330 330 330 329 327 325 324 323 322 322 321 321 321 321 320 320 320 320 320 319 318 319 319 317 316 316 317 318 318 317 317 316 316 315 314 313 312 312 312 311 309 309 310 311 311 311
335 336 339 340 341 340 340 341 341 341 342 342 342 342 342 341 340 339 337 335 333 330 328 325 321 318 317 316 317 319 319 319 321 323 325 329 331 331 331 330 329 329 327 325 323 323 322 321 321 321 321 320 320 319 319 319 319 319 317 316 317 318 318 317 316 317 316 316 315 315 315 314 314 312 311 310 310 309 309 308 310 311 311 311 310
335 337 339 340 339 339 339 341 341 341 341 342 342 342 341 340 340 339 338 336 333 330 328 324 320 318 317 317 319 321 321 322 323 325 328 331 332 332 330 329 328 326 325 323 322 321 320 319 319 319 319 319 319 318 318 318 318 318 318 317 318 318 317 316 315 315 314 314 314 313 313 313 312 311 310 309 309 309 309 310 311 311 310 309 309
335 336 338 339 339 338 339 340 340 340 339 339 340 339 339 339 339 337 336 334 331 328 325 322 319 318 318 319 320 321 323 324 327 329 330 331 330 329 328 326 324 323 322 320 319 319 318 318 318 318 318 318 318 318 318 318 317 317 317 317 317 317 316 315 314 314 313 313 312 312 311 311 311 309 308 308 309 309 310 310 311 310 309 309 308
334 336 337 338 337 336 336 337 336 335 334 334 334 334 335 335 334 333 332 331 329 326 323 321 319 319 320 321 322 324 326 328 329 329 327 325 324 325 324 322 321 320 320 319 319 318 318 318 318 318 318 317 317 317 317 316 316 316 316 316 315 315 314 314 313 312 312 311 310 309 309 309 309 308 307 307 308 308 309 310 310 310 309 308 307
335 335 335 334 333 332 331 331 331 330 329 329 330 330 330 331 330 330 329 328 326 324 322 321 322 322 323 324 325 326 327 327 326 324 323 321 321 321 321 320 320 319 319 318 318 318 317 317 317 316 316 316 316 316 316 316 316 316 315 315 315 314 314 313 312 311 311 309 307 306 306 307 307 308 308 309 309 309 309 309 309 309 307 307 306
333 332 331 330 329 328 327 327 327 326 327 327 327 327 328 328 328 328 328 327 326 325 325 324 324 324 325 324 324 324 323 322 321 321 321 320 320 320 319 319 319 319 318 318 318 317 317 316 316 316 315 315 315 315 315 315 315 315 314 314 314 313 312 312 310 309 308 306 305 305 306 307 307 308 308 308 307 307 308 308 308 307 307 306 306
328 328 328 327 326 326 325 325 324 325 325 325 325 325 325 325 326 326 326 325 325 324 324 323 323 322 321 321 321 320 320 319 319 319 319 318 318 318 318 318 318 318 317 317 316 316 316 315 314 313 312 311 311 310 310 311 312 313 313 313 312 311 311 310 308 307 305 304 305 306 306 307 306 307 307 306 305 306 307 307 307 307 307 306 306
326 326 325 325 324 324 324 324 324 324 323 323 323 322 322 322 322 322 321 321 321 320 320 320 320 319 319 318 318 317 317 317 316 316 316 316 316 316 316 315 315 315 314 313 313 312 312 311 310 310 309 309 309 309 309 310 311 311 311 311 311 310 309 308 306 305 304 303 304 305 305 306 306 306 306 306 306 306 307 307 307 307 307 306 306
325 324 324 323 323 322 322 323 322 322 321 321 320 320 319 319 319 318 318 318 317 317 316 316 316 316 316 315 315 315 314 314 314 314 313 313 313 312 312 312 312 312 312 312 311 310 309 309 309 309 309 310 310 311 311 311 311 311 310 310 310 309 307 306 305 305 303 302 303 304 305 305 305 306 306 305 306 306 306 306 306 306 306 305 305
323 323 323 322 322 322 321 321 320 320 319 319 318 318 318 317 317 317 316 316 316 315 315 314 314 313 313 313 313 313 313 312 312 312 312 312 312 312 312 312 312 312 312 311 310 310 309 309 310 310 310 310 311 312 312 311 310 310 310 309 308 307 306 305 305 304 301 301 303 305 305 304 305 305 305 305 306 306 306 306 306 305 305 305 305
322 322 322 322 322 321 321 320 319 319 318 318 317 317 317 317 316 316 315 315 315 315 314 314 313 313 313 313 313 313 312 312 312 312 312 312 312 312 311 311 311 310 310 310 309 309 310 310 311 312 312 312 312 311 311 310 309 309 309 308 307 306 305 305 305 303 300 300 303 304 304 304 305 306 305 306 306 306 306 305 305 305 304 304 304
322 321 321 321 321 321 320 319 319 319 318 318 317 317 316 316 316 315 315 315 315 315 314 314 314 313 313 313 313 312 312 312 312 312 312 311 311 311 310 310 309 309 309 309 310 311 311 312 312 312 312 311 310 310 310 309 308 308 308 307 306 305 304 304 304 301 299 298 300 303 304 305 305 305 305 305 305 305 305 304 304 304 303 304 304
Wind_Speed
16 17 18 18 19 20 21 23 23 24 22 21 24 30 32 33 36 36 33 31 31 33 35 34 32 31 30 29 29 29 29 30 31 30 29 29 28 27 24 22 23 24 23 21 19 18 17 18 17 15 14 12 11 11 9 11 11 11 10 10 10 8 8 8 5 2 2 3 3 4 5 4 3 4 4 4 5 3 1 1 2 3 4 5 6
17 18 19 19 21 21 22 23 23 23 24 22 23 26 29 30 33 33 31 31 32 34 36 35 33 32 31 29 29 30 31 31 29 28 29 30 29 27 25 24 22 22 23 22 21 20 18 16 16 15 13 12 11 11 12 12 10 10 10 10 10 8 6 6 5 4 4 4 4 4 3 4 4 5 5 4 4 3 1 2 2 2 3 5 5
18 19 19 19 21 22 23 24 24 24 24 24 23 23 26 29 29 29 29 31 31 33 34 35 34 32 31 31 30 30 31 32 31 28 28 29 30 28 26 25 23 22 23 22 22 22 19 16 15 14 13 13 13 12 11 12 13 12 11 10 8 7 5 5 6 6 5 3 2 4 4 6 6 6 6 5 5 5 2 2 2 3 3 4 5
17 18 18 19 20 22 23 24 24 24 23 22 22 24 26 27 28 28 28 28 30 32 33 33 33 33 32 32 31 31 32 33 33 31 29 28 29 29 27 25 23 22 24 24 23 22 21 17 15 14 14 14 14 12 10 11 12 11 9 8 7 7 6 6 6 6 5 3 3 4 5 7 6 6 6 3 5 5 2 1 2 2 2 2 5
17 17 18 19 20 21 21 22 22 23 21 20 22 26 28 28 30 32 31 29 29 31 32 30 30 31 32 33 33 33 33 34 34 34 32 29 29 29 27 25 22 22 25 26 22 19 20 20 16 16 17 15 13 12 11 10 9 9 8 8 8 8 7 7 7 7 7 6 5 5 6 7 7 8 6 3 4 5 3 1 2 3 2 1 3
18 18 18 20 21 21 21 21 21 22 22 21 23 26 27 28 31 34 34 32 28 27 29 32 33 34 33 32 33 34 35 34 33 33 32 30 29 27 26 26 23 22 23 24 22 19 20 21 18 19 20 17 14 14 13 11 11 11 11 10 10 9 8 8 7 7 7 7 6 5 6 8 8 8 6 5 4 3 3 3 2 2 2 1 1
17 18 20 21 21 22 22 22 21 22 22 23 24 26 25 25 28 31 32 32 29 25 26 31 33 34 33 31 32 33 34 33 32 31 31 29 27 25 26 27 26 23 21 22 24 24 23 21 17 18 22 20 17 16 15 14 14 14 12 11 10 8 8 9 8 8 8 8 7 7 8 8 9 9 7 6 5 3 2 2 2 1 1 1 2
18 19 21 22 23 23 22 23 23 23 23 23 24 25 24 23 25 26 26 27 28 24 23 25 26 27 27 26 24 24 24 25 27 28 28 28 25 25 27 28 27 25 21 21 26 27 26 24 20 19 21 21 20 19 18 17 16 14 13 12 10 8 9 10 9 9 8 8 9 10 10 9 10 10 9 7 7 6 4 2 1 2 3 3 3
19 20 21 22 23 23 22 23 23 22 23 24 24 23 23 22 24 24 23 24 27 25 23 23 24 24 24 22 20 19 18 18 20 23 25 24 23 24 27 27 27 26 23 21 23 25 26 25 22 20 21 22 22 21 19 18 17 16 15 13 10 9 11 11 10 10 9 8 8 9 9 10 11 12 10 8 7 7 5 3 2 2 4 4 1
20 20 19 20 22 22 22 23 23 23 24 25 24 23 23 22 22 22 22 22 25 28 28 29 29 30 28 27 27 26 21 18 19 24 26 24 22 24 26 26 26 26 25 23 22 23 26 26 23 21 20 21 22 21 19 19 17 15 15 14 13 13 13 13 11 11 11 9 10 11 11 10 12 13 10 9 8 7 6 4 3 2 2 2 2
21 21 21 22 22 22 23 24 26 27 27 26 25 25 24 21 19 21 22 23 24 26 28 29 30 30 30 29 30 30 26 25 27 30 31 29 26 26 26 26 26 26 25 25 25 24 26 25 21 18 19 20 20 18 18 18 16 14 13 13 14 14 14 13 11 12 12 11 10 10 10 11 12 12 10 9 8 6 5 5 3 2 2 2 1
22 23 23 22 22 23 23 25 27 28 27 25 25 27 27 23 20 20 21 24 25 24 24 25 25 27 28 27 29 30 28 30 33 34 33 32 30 28 27 26 27 26 25 25 25 25 25 24 19 18 21 22 19 18 17 15 14 13 12 13 14 14 13 13 11 11 13 12 8 6 9 12 13 11 9 9 8 6 4 5 4 3 2 3 1
22 23 23 23 22 22 23 24 26 27 27 26 26 27 26 23 22 21 20 21 22 22 23 23 24 27 28 27 31 32 29 30 32 32 33 35 33 30 27 27 27 27 25 25 24 24 27 26 22 20 22 21 19 20 19 16 15 16 15 15 15 13 12 11 9 8 10 11 9 8 8 13 14 11 9 8 9 7 3 3 4 3 2 1 1
22 23 22 22 21 20 23 26 26 26 27 27 26 26 24 22 22 22 21 20 19 19 22 24 25 28 29 29 31 33 31 31 31 31 32 35 35 31 27 27 28 28 28 28 26 26 29 29 25 23 23 23 23 23 22 20 20 19 16 15 13 11 11 11 9 6 5 10 14 13 12 14 15 12 10 8 7 6 3 2 2 1 2 0 1
23 22 21 22 22 22 25 27 26 26 28 28 27 26 24 22 21 21 22 22 20 19 22 24 26 28 29 29 29 31 31 32 32 31 31 34 35 32 28 26 27 28 30 30 27 27 30 31 28 25 25 26 26 25 25 24 23 20 17 16 15 13 12 11 11 9 10 14 17 16 15 15 15 13 12 10 9 7 5 3 2 2 3 2 3
22 20 20 22 23 24 25 25 26 28 29 30 31 29 25 23 21 20 21 22 20 20 22 23 25 27 27 27 28 29 30 31 33 32 31 33 35 33 29 26 25 26 29 30 30 29 30 31 30 28 27 27 27 27 27 26 23 21 20 20 18 16 13 11 11 12 14 16 15 14 14 13 12 12 12 11 9 7 6 5 4 6 6 7 6
22 19 18 20 22 24 24 24 25 27 27 30 34 32 27 25 23 19 18 20 20 21 23 23 23 25 26 25 26 27 27 28 32 34 32 32 34 33 29 26 25 26 26 27 28 28 28 29 30 28 26 27 27 27 27 26 24 24 25 23 20 17 15 13 12 12 14 14 12 12 12 10 9 9 8 7 6 5 6 3 1 3 5 5 3
20 17 17 20 23 23 24 23 24 25 26 29 32 32 28 25 22 19 19 21 22 22 21 21 21 23 26 26 25 26 27 27 30 33 33 33 35 33 28 26 26 24 21 20 21 24 26 27 28 29 28 27 28 29 28 26 27 27 27 25 21 19 16 15 14 13 12 12 11 10 10 8 7 7 7 7 7 7 7 6 4 3 3 1 4
20 19 21 24 24 25 27 26 25 24 26 28 29 29 29 27 23 20 20 21 21 20 19 19 20 22 25 26 25 25 26 26 29 33 32 32 34 31 28 29 26 18 16 18 19 21 22 21 24 29 31 30 32 32 29 29 30 28 27 24 21 19 17 16 16 15 13 13 13 12 11 10 10 10 9 8 8 7 7 7 6 6 6 6 5
19 20 22 23 25 26 25 24 24 25 26 27 26 25 27 28 24 21 19 18 18 18 17 19 20 21 23 25 26 27 26 24 27 31 32 32 33 30 28 29 24 16 16 19 19 19 21 20 21 27 31 32 34 32 29 29 30 28 25 24 22 20 19 18 17 16 16 16 15 14 13 12 12 12 12 11 9 7 6 6 6 7 7 8 10
20 19 21 25 27 25 23 23 26 28 27 26 25 24 27 29 25 20 18 18 17 16 15 16 17 19 22 24 26 28 27 23 23 27 30 31 33 30 26 25 24 21 21 23 23 23 25 23 20 22 29 34 35 34 30 29 28 26 24 24 24 22 21 20 19 19 19 18 16 14 13 12 12 12 11 11 11 9 8 7 6 5 6 8 12
20 19 21 25 26 24 24 25 25 26 25 24 24 24 27 28 25 20 17 17 17 15 14 14 14 13 16 22 26 27 25 23 23 26 28 29 32 32 28 24 26 27 26 26 26 26 28 27 24 26 31 35 35 32 30 28 26 24 23 23 24 23 21 22 22 20 19 17 16 15 14 13 13 12 11 11 10 9 9 9 7 6 6 7 9
20 18 19 22 24 24 25 26 24 23 23 22 23 26 27 26 22 18 17 17 16 15 13 14 13 11 13 20 27 27 23 22 25 27 27 28 31 34 32 27 27 29 29 29 29 30 30 31 31 31 32 34 33 30 27 26 24 23 24 25 26 25 23 22 21 18 17 17 15 14 14 14 13 13 12 11 9 8 9 10 9 8 7 7 6
18 17 17 21 24 24 24 26 25 23 21 20 22 25 27 25 20 16 15 14 14 13 12 12 12 12 13 17 22 24 23 21 22 24 26 29 32 33 31 29 28 29 29 30 32 33 34 35 36 35 33 32 31 29 27 25 23 24 26 26 26 24 22 20 18 16 17 16 15 13 13 14 15 14 12 10 9 9 8 8 9 9 8 8 8
17 19 20 22 25 25 25 26 25 22 20 20 22 25 25 23 19 15 12 12 11 10 9 10 9 11 13 14 15 19 20 19 18 19 22 26 29 30 29 30 32 30 29 30 33 36 38 37 36 35 33 31 29 28 27 26 25 26 25 24 23 22 21 19 17 17 18 16 15 14 14 15 15 13 11 9 9 9 7 4 4 5 6 5 5
18 21 24 24 25 26 26 25 23 21 21 20 21 23 21 18 15 12 10 10 10 9 9 10 10 11 14 16 16 15 15 14 15 17 17 19 25 29 29 30 32 31 31 34 36 38 38 36 34 33 32 31 29 29 28 26 25 23 22 21 21 20 20 19 18 18 17 15 14 15 14 12 11 10 10 9 7 7 6 4 2 2 3 2 1
19 20 22 23 23 23 25 24 21 19 18 16 16 16 13 12 12 11 10 10 11 10 9 9 9 9 11 16 16 14 13 13 14 15 15 18 25 31 32 33 34 34 36 39 40 39 37 35 33 31 31 30 29 28 27 25 23 21 20 19 19 19 18 18 17 16 16 16 16 16 14 12 11 11 10 9 8 7 5 4 3 3 3 2 2
19 20 22 22 21 21 22 22 20 19 17 14 12 11 9 8 9 10 11 11 9 8 7 6 8 9 10 12 14 15 14 15 17 17 19 25 30 33 34 36 37 40 42 42 40 38 36 34 33 31 30 29 28 27 26 24 21 20 19 18 18 18 17 17 16 16 17 17 18 16 14 12 11 10 9 9 9 7 5 3 3 3 2 1 3
20 21 21 21 21 21 20 19 17 18 17 12 8 9 10 8 6 7 8 7 6 7 6 6 8 10 11 13 14 13 12 14 17 21 24 30 34 35 36 39 42 44 45 45 42 38 35 32 31 30 29 28 27 25 24 22 20 19 19 19 19 18 17 17 16 17 17 17 17 15 12 11 10 8 9 10 7 6 7 5 2 2 2 3 5
21 21 21 21 22 21 19 17 16 17 16 11 6 4 7 7 5 5 4 3 0 4 6 6 7 9 12 14 13 11 10 11 15 20 26 32 36 36 37 42 45 46 46 45 42 37 33 30 28 27 26 25 23 22 21 20 19 19 19 20 19 18 17 16 16 16 16 15 14 12 11 11 9 7 8 8 6 6 8 7 4 4 6 7 7
20 21 21 21 22 22 19 18 17 15 13 10 6 4 5 6 8 8 8 8 5 3 5 7 9 10 12 11 10 10 12 13 15 21 30 34 36 37 40 43 46 46 46 44 39 34 31 28 25 23 22 21 20 21 20 19 19 19 19 19 18 17 17 17 16 16 15 13 12 10 9 9 9 7 6 6 4 4 6 7 6 7 7 6 5
19 21 21 21 22 21 19 18 17 15 13 11 8 5 5 7 9 10 8 8 8 7 7 7 7 7 9 10 10 11 13 14 18 26 34 37 38 43 47 48 46 44 43 41 35 29 27 25 23 21 21 20 20 20 19 19 19 18 19 18 17 17 19 18 17 16 14 12 12 10 8 7 7 6 5 5 3 2 3 4 4 5 5 4 4
19 21 21 22 21 20 19 17 16 15 14 12 10 7 6 5 6 7 6 8 8 8 9 7 5 4 6 8 10 11 13 17 24 33 37 40 45 49 50 48 46 42 39 36 31 25 24 23 21 21 21 20 20 20 19 19 19 18 18 18 18 19 20 17 14 13 13 12 12 10 7 6 6 4 3 3 2 0 0 1 2 3 2 3 4
20 21 22 21 20 19 18 16 15 15 14 12 11 9 6 4 2 2 3 6 8 8 8 7 5 6 6 7 9 12 16 23 31 37 41 45 50 52 49 44 39 35 32 30 27 24 22 21 21 21 21 20 20 20 20 20 19 19 19 20 20 21 19 13 9 11 11 9 9 9 8 7 6 4 2 2 1 0 2 2 3 4 5 5 6
19 20 22 21 19 18 18 16 15 14 13 11 10 8 3 2 3 3 1 4 7 8 8 7 6 7 8 9 12 17 24 30 36 41 46 49 51 50 45 37 30 26 24 24 24 22 20 21 22 22 22 21 21 21 20 19 20 21 22 21 21 21 16 10 10 12 10 8 9 10 8 6 4 2 1 1 1 3 4 4 4 5 6 5 5
19 20 21 21 20 20 19 17 15 14 12 11 9 6 3 2 5 6 6 6 7 7 9 10 9 10 14 17 21 24 29 34 39 44 49 52 50 45 38 30 25 22 22 22 21 20 20 21 23 22 22 22 21 20 19 20 22 23 21 20 19 17 13 10 10 10 9 9 10 9 6 4 3 2 3 3 4 5 4 4 4 5 4 3 4
19 19 19 20 21 22 21 18 16 14 12 11 10 7 4 4 7 8 7 7 7 7 9 11 13 17 19 21 26 30 33 37 43 47 48 46 42 36 31 27 24 24 22 19 19 20 22 24 24 23 23 22 21 20 20 22 23 22 20 18 17 16 14 13 11 9 8 9 10 8 5 4 4 3 4 5 5 4 4 4 4 4 3 2 4
20 19 19 19 21 22 20 18 15 12 11 11 9 6 3 6 8 7 7 7 7 8 9 10 13 18 21 22 27 34 37 39 41 42 39 34 28 25 24 25 24 23 20 18 20 25 27 25 24 23 22 22 21 21 22 23 23 21 19 18 18 18 16 13 11 8 7 8 9 8 6 5 5 4 4 4 4 3 3 3 3 4 4 3 4
19 20 19 18 18 20 21 19 14 10 10 10 5 2 3 5 8 8 7 6 7 9 10 10 12 17 21 25 31 36 38 37 36 33 29 24 20 19 22 24 24 21 20 21 25 27 27 25 24 23 22 22 22 22 22 22 21 19 17 17 17 16 14 12 10 8 8 9 9 8 6 6 6 5 4 4 4 3 3 3 3 4 4 4 4
17 19 20 18 17 19 21 17 9 6 9 8 3 3 3 5 7 9 8 7 7 8 9 10 12 15 21 28 33 36 36 34 32 30 26 21 18 17 20 23 23 21 21 24 27 27 27 28 27 26 24 24 23 23 22 21 19 17 16 16 15 14 14 13 12 11 10 10 9 8 7 6 5 4 4 4 3 3 3 3 3 2 2 3 4
16 17 18 19 19 21 21 13 4 5 7 7 6 6 5 4 5 7 9 9 8 8 9 11 12 15 21 26 27 28 30 31 28 24 21 20 19 18 18 20 22 22 24 28 30 30 31 31 29 28 27 25 24 22 20 18 17 17 18 17 16 15 13 12 11 11 10 8 8 7 6 6 4 3 3 3 3 3 2 2 2 2 2 3 3
15 15 18 18 17 17 15 8 7 10 11 12 13 12 9 8 9 11 14 13 10 10 12 15 16 18 20 21 22 25 28 25 19 15 16 20 22 21 20 22 25 27 30 33 34 34 33 31 29 28 26 25 22 21 19 18 18 18 18 17 16 16 14 12 11 11 9 8 7 6 5 5 3 2 2 2 2 3 3 2 2 2 2 2 3
15 15 13 10 10 12 12 11 12 14 15 16 17 17 17 16 15 15 15 13 12 13 16 18 21 21 21 23 27 28 25 20 18 21 24 27 28 28 27 28 31 33 34 35 35 34 33 32 30 28 27 25 24 22 20 19 18 17 17 17 16 16 15 12 11 9 8 6 4 2 2 2 2 2 2 2 2 2 3 2 1 1 1 2 3
10 5 7 13 16 17 18 17 16 15 16 18 19 20 20 20 18 18 17 16 16 18 20 22 24 24 24 25 26 23 21 22 26 30 32 32 32 32 31 32 33 34 35 35 34 33 32 32 30 29 27 25 24 22 21 18 17 15 14 12 12 11 10 9 7 5 3 4 4 2 1 1 2 3 2 1 1 1 2 2 1 1 1 2 3
10 14 17 19 19 20 21 21 20 17 17 19 21 22 21 21 20 20 19 19 20 21 22 24 25 25 24 24 25 27 30 32 32 33 34 34 33 33 34 34 35 35 34 34 33 32 32 31 29 27 25 23 21 19 17 15 13 12 10 8 6 6 5 4 3 4 5 5 4 3 3 2 2 2 1 1 1 1 2 2 1 1 2 3 3
21 21 21 22 23 23 22 22 22 21 20 20 21 22 23 23 24 24 24 25 25 26 27 28 29 29 29 28 29 33 36 37 35 36 37 37 35 35 35 36 36 34 33 32 31 30 29 27 25 23 22 20 18 16 14 11 9 6 5 4 3 3 2 3 4 5 5 4 3 3 1 1 1 1 2 2 1 1 2 3 3 3 3 3 3
24 24 24 24 24 24 23 23 25 25 23 22 22 23 25 26 28 28 30 31 31 31 30 29 29 31 32 31 32 34 37 38 39 40 40 38 37 36 36 35 34 33 32 30 29 27 25 23 21 20 19 17 16 14 11 8 5 3 2 1 1 2 3 4 4 5 5 3 0 1 1 1 1 1 1 1 1 2 2 3 3 3 3 2 3
24 24 24 25 25 25 25 25 25 26 25 25 25 25 27 29 29 30 31 32 33 33 34 34 33 33 32 33 35 38 39 40 40 39 38 37 36 36 35 33 32 30 29 27 25 24 22 20 18 17 15 14 12 10 7 5 3 2 1 1 1 2 3 5 6 7 4 0 2 3 2 1 1 1 1 1 2 3 3 3 3 4 3 3 4
23 24 25 25 25 25 25 25 25 25 25 25 26 26 27 28 28 28 29 30 31 32 33 34 35 35 34 34 35 37 38 38 38 37 35 33 32 32 32 31 29 27 26 25 23 21 20 18 15 13 11 9 7 6 5 4 4 3 3 1 2 3 4 6 8 6 2 3 4 3 1 1 0 1 2 2 2 3 4 4 4 4 3 3 5
24 25 25 24 24 25 26 27 27 25 24 25 25 24 23 23 24 25 27 28 29 29 30 31 32 32 32 32 33 34 34 34 33 32 31 30 28 28 28 27 25 24 23 22 20 18 16 14 11 9 8 7 6 5 5 5 5 4 2 2 3 4 6 8 9 6 2 3 5 4 2 0 1 1 2 3 3 4 4 4 4 3 3 4 5
25 26 26 26 26 26 27 27 26 23 22 24 24 23 22 23 23 25 27 28 28 29 29 30 30 30 30 31 32 32 32 30 29 29 28 27 25 24 24 23 22 21 19 17 15 12 10 9 8 7 6 6 6 6 6 6 5 4 2 2 3 4 7 10 9 6 1 4 7 6 3 1 1 2 2 3 3 4 4 5 5 5 5 6 7
Wind_Direction
290 289 287 284 282 279 277 278 279 281 284 275 252 236 230 229 231 233 231 227 226 227 229 230 228 225 223 220 221 222 222 221 221 221 221 220 219 221 224 222 221 224 226 227 230 234 239 240 235 235 236 225 220 222 194 164 161 157 152 153 152 161 165 157 156 162 202 226 255 275 255 245 256 232 215 213 212 231 347 129 261 271 258 267 268
290 291 290 287 285 283 281 281 284 283 281 280 268 248 236 233 234 233 228 225 225 226 228 231 230 227 224 221 218 218 219 219 218 217 217 217 217 219 221 221 220 219 219 222 227 232 239 241 236 232 233 232 231 217 188 171 167 160 153 153 157 164 164 160 162 172 202 223 247 261 237 216 212 190 183 196 187 182 196 209 247 273 239 240 243
288 288 288 287 286 287 287 287 287 286 283 281 278 265 252 246 245 241 232 226 225 226 229 231 231 228 226 223 220 217 217 217 217 216 216 215 216 218 218 217 218 217 216 219 223 228 234 238 232 226 226 230 231 223 197 173 167 166 160 157 162 165 166 176 177 184 195 198 250 254 193 182 201 187 173 185 187 181 186 199 230 283 269 240 232
289 288 287 288 289 288 289 290 290 290 288 284 284 279 267 256 252 252 249 240 232 230 232 233 233 232 229 226 223 221 218 217 218 218 216 214 213 214 215 214 216 219 219 218 220 223 226 227 224 219 218 222 223 221 206 177 167 170 168 165 172 172 176 185 181 188 193 174 216 233 191 184 196 178 167 191 202 190 184 251 221 241 301 276 223
289 290 289 289 288 287 287 288 290 291 288 287 289 287 276 263 253 252 252 249 242 237 234 234 238 239 235 229 225 224 222 219 216 216 215 213 211 212 212 212 215 219 216 214 215 221 225 223 219 213 210 213 214 206 195 184 178 181 178 177 184 185 187 191 186 190 194 190 206 213 194 193 188 172 170 200 205 184 173 228 216 216 264 0 166
290 290 291 290 288 289 290 289 289 288 287 289 293 290 280 269 260 254 252 250 247 243 236 234 237 240 240 235 227 225 226 222 215 213 213 213 211 210 210 210 212 216 217 216 216 219 223 222 221 218 212 208 207 198 190 189 190 185 180 182 189 195 198 195 186 185 189 190 197 204 204 199 180 168 172 186 191 166 153 202 256 230 222 21 97
291 290 292 292 291 291 291 290 289 285 282 286 290 286 278 270 263 258 255 251 248 246 239 233 234 237 239 238 233 228 228 223 215 211 211 211 208 205 205 206 208 213 218 220 219 218 220 219 215 212 208 202 198 193 188 190 192 189 190 194 199 199 194 189 184 184 188 188 193 206 211 199 178 170 168 169 189 199 151 189 272 1 85 331 311
291 290 292 292 290 289 290 291 291 285 280 282 285 282 275 269 263 259 258 254 249 247 243 238 239 245 248 247 243 242 240 230 220 214 213 209 205 204 205 204 207 213 214 214 219 220 220 219 212 207 204 200 198 197 196 198 197 197 201 205 208 198 182 180 182 184 189 194 202 208 205 197 185 177 169 166 184 192 160 152 253 317 325 296 290
290 287 287 288 288 288 289 291 291 287 283 282 282 279 274 271 267 262 259 255 250 247 245 241 240 249 261 263 257 258 264 252 231 220 214 206 202 205 207 206 209 212 209 206 214 219 222 223 219 215 211 206 203 204 205 207 207 206 205 203 203 195 180 176 182 188 192 196 206 208 200 193 180 166 165 174 176 172 169 189 224 253 297 292 244
290 284 282 284 287 288 289 291 291 286 284 282 280 278 278 278 275 267 258 255 255 253 249 244 240 241 249 252 247 245 251 251 237 225 216 207 203 205 205 205 208 208 204 201 204 208 213 218 221 221 215 209 209 210 209 210 210 210 208 203 197 191 180 174 184 196 196 198 213 211 196 179 166 157 166 184 179 167 173 197 212 213 270 281 149
289 286 284 285 289 290 290 292 290 285 282 281 278 276 275 274 270 265 258 256 259 260 253 246 243 242 242 244 240 233 229 229 224 221 218 212 208 207 203 202 204 203 200 201 206 205 203 207 217 221 215 210 210 208 204 204 202 200 204 204 199 194 185 181 192 202 202 210 219 205 176 159 158 163 173 177 169 160 166 182 194 192 220 265 210
291 287 284 285 290 293 293 294 292 287 284 282 279 279 277 270 259 248 245 252 258 259 253 244 239 240 240 241 239 232 226 224 220 217 218 215 212 210 205 202 203 203 200 202 208 210 206 205 207 209 209 209 205 197 192 195 197 195 196 196 194 193 188 186 194 204 212 217 208 172 160 157 156 160 163 159 152 150 168 189 185 184 225 284 277
293 290 287 288 291 294 296 297 295 288 284 282 282 282 280 273 261 244 236 245 254 253 250 246 239 236 233 232 232 230 227 225 221 219 220 218 213 209 205 203 204 204 203 200 202 206 210 209 204 200 202 200 193 189 187 187 191 190 186 184 184 185 184 184 187 199 214 206 164 126 139 148 143 143 146 148 151 152 180 201 158 161 221 273 75
292 291 293 293 291 293 296 296 293 288 284 284 282 279 272 266 262 253 243 241 241 240 244 246 241 235 231 229 229 227 224 220 218 218 221 219 213 208 205 205 206 207 205 201 197 200 206 208 204 202 199 192 186 186 185 183 181 178 175 171 166 166 171 176 177 175 185 171 142 120 122 133 135 136 137 142 151 153 184 214 123 158 228 282 50
290 291 295 290 284 288 294 297 297 294 289 287 283 276 269 262 256 250 247 243 235 231 237 240 240 237 233 230 230 229 226 221 217 218 219 218 214 208 203 202 204 207 207 201 195 199 206 206 204 202 198 193 189 185 182 178 173 168 164 156 150 151 157 165 171 165 155 151 144 134 134 139 142 145 147 153 157 161 180 185 160 211 232 249 218
290 290 290 284 280 287 295 299 299 297 295 292 286 278 271 266 258 247 245 247 241 234 232 231 234 239 237 230 229 231 230 226 222 218 217 216 213 205 200 200 200 201 202 199 198 202 205 203 202 202 197 191 187 184 180 174 168 164 157 149 146 145 139 140 153 159 153 149 148 147 148 151 154 157 162 166 165 173 182 184 213 225 223 238 216
291 288 286 286 289 297 302 301 296 292 289 287 284 279 274 271 266 255 243 241 239 236 233 227 227 236 240 236 232 231 231 227 222 218 215 213 209 203 200 201 198 196 198 199 200 203 204 204 206 203 193 185 183 183 179 171 165 162 155 148 146 141 131 130 137 143 144 140 137 140 144 149 153 156 163 167 163 166 160 144 278 227 199 228 202
297 292 291 297 299 301 303 299 292 286 280 277 277 278 278 274 269 261 248 241 237 235 232 229 228 231 236 237 235 233 231 226 219 215 213 211 207 202 199 199 198 198 200 202 205 207 208 209 207 198 190 187 186 182 177 170 166 162 155 148 145 141 136 136 133 130 132 132 128 129 133 134 137 140 141 143 144 136 114 86 52 70 104 83 115
303 299 301 307 307 305 304 299 293 286 279 275 275 276 277 274 269 262 256 249 242 238 232 229 230 229 229 232 234 235 235 231 222 216 213 212 209 203 200 202 201 196 195 201 208 210 208 207 201 191 187 186 185 180 175 172 167 162 157 151 146 146 148 150 148 142 136 132 126 124 120 110 104 105 105 111 127 126 104 90 82 74 55 37 80
305 300 301 309 310 308 306 302 297 291 283 279 279 277 277 275 269 261 259 253 244 239 231 224 225 228 229 231 232 232 233 234 229 223 219 216 211 205 202 202 196 182 178 188 195 199 201 203 197 191 189 187 183 178 175 172 166 161 159 156 151 152 157 159 156 145 135 131 127 124 122 112 101 96 92 87 88 91 94 97 92 86 76 57 59
309 302 301 308 310 308 306 303 300 296 288 284 284 281 279 277 271 263 262 257 247 240 230 220 222 227 231 232 232 233 233 233 232 230 226 220 211 203 199 194 186 175 168 172 178 184 192 195 189 187 191 189 182 175 172 170 165 162 162 159 154 153 155 155 150 140 134 134 131 129 131 128 118 109 101 91 83 80 84 90 90 95 99 83 76
312 303 302 306 308 307 307 305 303 297 290 289 288 284 279 275 270 264 261 256 248 239 230 224 222 223 229 232 233 234 232 231 233 234 231 224 212 201 195 188 182 174 163 159 166 174 181 184 176 174 179 178 171 166 163 162 162 162 161 158 153 151 152 152 149 142 136 134 136 140 141 136 126 117 109 103 96 91 91 89 86 89 94 94 98
309 298 295 302 307 309 308 308 308 301 295 296 296 288 280 273 267 261 258 255 248 239 231 224 212 199 211 227 233 236 234 230 232 234 231 225 211 200 197 192 181 171 162 158 162 166 168 170 166 163 164 162 159 158 156 157 161 162 159 155 152 151 151 148 144 140 138 141 146 147 144 136 126 118 115 112 104 101 98 91 86 86 87 91 92
305 296 295 304 311 311 309 311 313 310 306 302 295 286 281 277 271 261 254 252 248 243 237 225 204 190 201 223 236 239 235 229 226 226 228 224 208 195 195 194 182 171 164 160 160 161 161 161 160 159 155 152 151 151 151 153 155 155 153 151 150 150 149 144 141 140 138 139 136 126 120 122 121 118 121 119 108 103 100 90 82 77 74 78 72
309 306 306 309 312 314 314 313 314 318 320 311 294 283 281 279 272 260 252 247 242 238 227 212 193 179 188 212 232 231 223 219 218 220 228 224 204 187 186 187 181 173 164 157 155 156 156 154 153 152 149 146 144 141 140 142 144 145 146 145 144 144 142 139 138 135 130 128 123 112 107 115 123 126 125 112 100 100 97 85 81 70 59 67 62
313 311 312 313 315 320 321 318 315 320 325 316 296 285 282 278 267 257 254 249 237 225 215 208 195 174 180 205 226 222 206 206 210 213 220 213 191 178 174 172 170 167 159 151 148 147 146 146 146 143 142 142 140 136 135 136 137 137 138 139 138 139 140 137 134 132 130 129 126 120 117 123 131 131 121 110 109 112 95 70 83 93 75 81 25
312 312 314 316 319 323 323 318 319 325 328 319 304 295 291 283 272 258 249 242 230 221 221 214 200 184 187 201 208 200 188 195 201 197 191 181 169 162 158 157 157 155 147 141 140 138 138 140 141 139 137 136 135 134 133 132 129 127 129 133 134 135 138 138 136 136 136 133 130 129 131 133 130 127 127 129 132 128 107 72 70 90 81 62 310
314 316 318 319 321 324 320 314 320 334 337 328 320 323 325 306 281 256 240 235 223 213 217 206 191 192 189 181 178 175 174 184 191 186 175 166 158 151 150 151 151 147 141 137 136 136 136 136 134 132 130 128 128 128 128 127 125 125 127 131 131 132 135 137 137 137 136 134 133 134 136 137 136 140 150 149 137 133 139 121 86 96 94 339 294
318 321 323 323 324 324 319 314 323 338 339 324 311 329 346 343 312 275 257 246 221 203 199 186 185 193 187 172 171 171 165 173 188 190 179 168 160 154 151 151 148 144 142 140 136 133 130 128 127 127 128 127 127 128 128 127 125 125 128 130 131 132 135 134 131 130 133 135 135 137 142 148 151 159 167 163 155 158 165 162 130 125 195 251 260
318 323 327 327 324 322 322 322 331 344 343 325 296 318 353 1 352 330 332 348 232 192 187 181 192 196 185 177 180 183 180 188 198 191 177 167 161 156 152 148 144 141 140 139 135 130 125 124 125 128 130 132 134 135 135 133 129 127 130 134 134 135 137 134 129 128 134 139 140 144 152 154 152 164 172 163 156 168 177 183 192 201 216 237 254
315 321 327 326 322 322 328 332 339 347 347 334 312 302 331 4 19 15 18 34 56 114 177 201 210 198 184 185 192 192 194 201 196 180 170 164 160 154 147 142 138 137 137 135 131 127 127 130 133 138 140 140 139 139 139 137 135 137 141 143 144 143 142 140 138 138 142 148 149 149 157 160 155 156 158 148 144 174 193 203 212 215 223 244 272
310 318 326 325 322 327 334 338 340 344 345 344 343 330 328 356 15 17 29 58 80 107 138 172 193 183 179 194 199 183 179 186 181 171 166 161 155 149 144 140 138 138 136 132 127 128 135 139 142 147 146 142 140 141 141 140 143 148 150 149 149 147 145 145 147 148 151 155 152 148 154 160 153 143 143 150 159 192 200 207 222 234 246 269 288
311 317 322 323 327 334 337 337 340 341 341 346 354 355 357 17 21 13 31 60 73 89 105 118 136 149 170 197 199 182 172 174 171 166 161 155 150 145 142 140 140 138 134 130 130 137 144 144 143 144 142 139 141 143 143 146 152 154 150 146 143 142 144 148 152 150 150 149 147 148 147 136 127 119 112 124 123 38 318 275 295 297 302 327 340
314 316 320 324 331 337 336 335 340 342 342 350 4 14 32 62 43 322 4 52 58 62 72 89 121 145 159 178 180 170 166 166 164 159 153 149 145 142 138 135 135 134 133 134 137 143 145 142 140 140 140 142 144 146 148 153 153 144 133 129 129 133 138 140 129 127 133 129 122 120 110 96 97 96 76 83 122 352 14 3 353 4 14 10 2
318 318 320 325 331 335 333 332 339 342 342 352 12 32 66 145 193 209 185 67 65 63 62 70 101 136 147 151 153 155 157 156 154 152 148 145 142 138 135 133 135 138 139 139 141 143 142 138 136 138 140 142 143 146 148 144 133 123 116 117 123 130 133 124 110 115 121 112 98 96 92 85 86 85 54 42 34 33 28 12 5 15 18 13 11
319 319 321 325 329 331 330 331 339 342 337 342 5 31 55 91 114 126 119 97 94 93 81 75 87 111 128 139 147 152 153 152 151 150 148 144 141 139 137 138 143 145 144 143 144 140 133 130 130 132 134 134 135 136 134 125 118 116 116 120 128 132 129 122 119 114 107 103 101 97 93 93 83 49 29 35 36 27 14 4 3 6 4 8 8
315 316 318 321 325 326 327 331 337 339 334 339 358 16 35 71 89 98 101 101 105 104 97 96 101 106 114 128 142 148 149 150 150 149 145 142 141 140 141 143 145 144 143 144 140 127 118 117 119 120 120 121 123 121 119 116 115 117 120 125 131 129 123 122 122 108 94 102 111 107 99 94 81 53 38 35 26 8 359 5 1 347 339 335 316
312 311 312 317 321 322 324 326 329 332 335 340 352 11 57 94 95 87 86 100 107 106 107 112 113 111 112 124 138 142 141 141 142 142 141 140 139 139 141 143 142 140 138 131 120 114 110 109 111 111 112 114 115 112 111 112 113 113 116 120 122 121 119 122 124 117 103 101 104 104 96 81 69 60 44 23 4 356 6 10 351 336 334 328 317
308 307 309 315 320 321 319 316 318 331 340 340 345 23 72 98 107 104 97 103 109 108 112 119 121 122 128 135 139 139 138 137 139 143 145 142 136 136 140 140 137 134 128 117 111 110 109 108 109 109 109 110 110 109 110 111 111 111 113 117 119 120 123 123 120 111 96 85 85 86 78 65 59 53 35 7 356 10 18 6 344 334 331 331 335
305 306 311 317 324 326 320 313 314 338 341 339 8 106 93 89 108 118 117 114 109 107 111 116 121 129 139 143 144 143 142 142 145 149 148 139 130 130 134 132 129 125 119 113 108 106 104 103 103 103 103 104 107 110 114 118 118 118 121 123 121 119 118 112 101 92 84 77 74 72 65 58 51 39 20 1 356 7 359 320 304 313 330 328 327
304 308 315 320 326 325 317 310 334 28 7 13 56 85 91 84 97 114 117 111 105 100 99 103 112 129 141 147 147 145 142 142 145 149 145 136 130 129 128 124 120 117 113 108 104 102 102 101 101 100 101 102 106 110 114 115 112 112 114 114 111 109 108 100 91 87 81 73 70 68 55 39 28 17 3 347 338 335 312 284 301 11 14 336 329
308 310 314 319 329 332 327 337 51 55 44 48 56 62 68 73 83 96 99 96 94 97 100 107 119 132 139 140 139 136 135 135 134 129 121 117 117 118 116 111 107 107 106 105 103 102 101 101 100 101 100 100 101 103 102 101 100 101 102 100 98 100 101 93 86 87 84 77 75 70 47 26 16 358 334 331 331 324 313 313 345 14 358 330 334
303 306 317 341 19 28 21 30 50 54 54 56 59 64 71 75 78 84 86 85 91 100 106 114 122 127 129 131 133 134 134 127 114 103 99 100 101 103 103 102 101 102 104 105 105 104 102 100 99 99 98 96 96 96 94 94 95 96 95 94 93 96 97 95 94 94 89 72 50 30 20 17 0 335 318 310 315 321 323 331 353 28 12 345 327
305 336 45 64 67 59 47 42 43 47 56 63 65 68 72 74 76 80 83 87 96 104 110 115 119 121 123 126 128 125 115 105 101 100 97 95 94 95 96 98 99 101 102 104 106 107 105 102 101 100 98 97 97 94 93 93 95 96 99 100 100 101 102 100 94 84 53 4 348 356 38 42 351 341 336 332 350 339 323 315 328 49 0 320 298
62 74 74 70 66 61 58 55 50 46 54 66 69 69 71 74 79 85 92 98 104 107 109 109 110 109 110 110 108 103 98 95 94 95 94 93 93 93 95 96 97 97 99 102 106 107 106 105 104 102 100 97 95 92 89 87 88 96 105 111 110 109 102 78 38 10 355 357 21 51 60 41 0 338 318 354 21 344 319 313 308 302 306 298 295
71 70 66 64 64 63 63 65 65 61 60 64 68 69 70 73 76 80 85 90 94 95 96 96 96 96 95 95 95 96 96 95 93 92 92 91 91 91 94 96 97 98 99 102 104 105 105 105 104 102 99 95 92 89 84 79 76 83 93 99 103 98 57 9 0 1 4 18 49 67 67 53 1 318 307 310 308 285 288 289 280 274 278 280 296
70 69 66 65 65 64 65 69 73 73 69 66 68 70 72 74 76 78 80 82 84 85 86 87 89 90 92 92 92 92 93 94 94 94 95 96 96 97 98 99 100 102 102 103 103 103 102 100 97 95 91 89 86 85 86 86 82 75 74 76 53 7 354 356 7 6 356 343 27 115 126 125 71 352 320 308 287 272 275 278 277 281 276 269 285
67 70 71 70 69 68 67 69 72 73 73 70 69 70 72 74 76 78 80 82 83 84 85 85 85 86 88 90 92 94 95 96 96 97 98 101 103 105 108 109 109 108 107 105 103 102 100 99 98 94 90 88 86 87 93 103 110 117 133 148 13 6 4 3 2 360 354 56 119 100 93 96 52 339 286 285 294 287 283 283 282 284 281 274 278
65 68 72 73 72 72 70 69 70 71 72 73 73 73 73 75 76 78 81 84 85 87 89 90 90 91 92 93 95 96 97 98 99 101 104 106 107 109 112 114 113 111 108 106 105 105 106 108 109 108 107 108 108 112 126 142 152 157 159 134 48 28 13 5 1 358 11 134 122 98 84 113 88 304 280 279 278 271 272 279 281 278 278 283 286
66 68 69 71 73 75 75 75 74 72 72 74 75 74 73 72 73 76 80 83 84 85 88 89 91 94 96 97 97 98 99 100 102 106 109 110 110 111 111 110 108 107 106 107 109 113 116 120 122 123 123 127 133 145 160 167 168 161 143 75 37 19 8 5 5 1 340 180 157 132 112 88 310 304 289 286 287 286 293 310 321 318 304 292 289
69 70 69 69 72 74 76 75 75 73 72 74 75 75 75 76 79 81 83 85 87 89 90 91 93 96 99 100 102 104 105 106 107 109 110 111 110 110 109 108 109 110 113 116 120 123 126 130 133 133 134 141 156 171 175 169 162 150 109 31 15 13 9 7 7 8 3 182 163 134 100 28 310 319 321 316 323 329 331 333 332 318 297 283 279